Location: Boursonne
(49.2024°N, 3.0468°E)
Time: 08:02:21
(UTC+00:00)

ASTEX 1 - Pass Details

Date: 03 March 2021
Orbit: 720 x 743 km, 92.7° (Epoch: 12 April)

Event Time Altitude Azimuth Distance (km) Brightness Sun altitude
Rises 19:19:47 0° 9° (N) 3,151 6.7 -18.0°
Reaches altitude 10° 19:22:09 10° 15° (NNE) 2,223 5.9 -18.3°
Maximum altitude 19:26:56 51° 91° (E) 906 3.5 -19.1°
Enters shadow 19:30:13 19° 161° (SSE) 1,661 4.9 -19.6°
